SCP
-0 -0 0 -0 -0 -0 0 0 0 0 0 0 -0 -0 -0 0 -0 -0 0 0 -0 -0 -0 -0 -0 -0 -0 -0 -0 -0 -0 -0 -0 -0 -0 -0 -0 -0 -0 -0 -0 -0 -0 -0 -0 -0 -0 -0 -0
0 0 0 0 -0 0 -0 0 -0 0 -0 -0 -0 0 -0 -0 0 0 0 0 -0 -0 -0 -0 -0 -0 -0 -0 -0 -0 -0 -0 -0 -0 -0 -0 -0 -0 -0 -0 -0 -0 -0 -0 -0 -0 -0 -0 -0
0 0 0 0 0 0 0 0 -0 0 0 0 0 -0 0 0 0 -0 0 -0 -0 -0 -0 -0 -0 -0 -0 -0 -0 -0 -0 -0 -0 -0 -0 -0 -0 -0 -0 -0 -0 -0 -0 -0 -0 -0 -0 -0 -0
0 -0 0 -0 0 0 0 0 0 0 -0 -0 -0 -0 -0 -0 -0 0 -0 -0 -0 -0 -0 -0 -0 -0 -0 -0 -0 -0 -0 -0 -0 -0 -0 -0 -0 -0 -0 -0 -0 -0 -0 -0 -0 -0 -0 -0 -0
0 0 -0 -0 0 0 0 0 0 0 0 -0 -0 0 -0 -0 -0 -0 -0 -0 -0 -0 -0 -0 -0 -0 -0 -0 -0 -0 -0 -0 -0 -0 -0 -0 -0 -0 -0 -0 -0 -0 -0 -0 -0 -0 -0 -0 -0
0 0 -0 0 0 0 0 0 0 0 0 -0 -0 -0 0 0 -0 -0 -0 -0 -0 -0 -0 -0 -0 -0 -0 -0 -0 -0 -0 -0 -0 -0 -0 -0 -0 -0 -0 -0 -0 -0 -0 -0 -0 -0 -0 -0 -0
0 0 0 0 0 0 0 0 0 0 0 0 -0 0 0 0 0 -0 -0 -0 -0 -0 -0 -0 -0 -0 -0 0 -0 -0 -0 -0 -0 -0 -0 -0 -0 -0 -0 -0 -0 0 -0 -0 -0 -0 -0 -0 -0
0 0 0 0 0 0 0 0 0 0 0 0 0 0 0 0 0 -0 -0 -0 -0 -0 -0 0 0 0 0 0 0 0 0 -0 -0 -0 -0 -0 -0 -0 -0 -0 0 0 0 -0 -0 0 0 0 0
0 0 0 0 0 0 0 0 0 0 0 0 0 0 0 0 0 0 0 0 0 0 0 0 0 0 0 0 0 0 0 0 0 -0 -0 -0 0 -0 0 0 -0 -0 0 -0 0 0 0 0 0
0 0 0 0 0 0 0 0 0 0 0 0 0 0 0 0 0 0 0 0 0 0 0 0 0 0 0 0 0 0 0 0 0 0 0 0 0 0 0 0 0 0 0 0 0 0 0 0 0
0 0 0 0 0 0 0 0 0 0 0 0 0 0 0 0 0 0 0 0 0 0 0 0 0 0 0 0 0 0 0 0 0 0 0 0 0 0 0 0 0 0 0 0 0 0 0 0 0
0 0 0 0 0 0 0 0 0 0 0 0 0 0 0 0 0 0 0 0 0 0 0 0 0 0 0 0 0 0 0 0 0 0 0 0 0 0 0 0 0 0 0 0 0 0 0 0 0
0 0 0 0 0 0 0 0 0 0 0 0 0 0 0 0 0 0 0 0 0 0 0 0 0 0 0 0 0 0 0 0 0 0 0 0 0 0 0 0 0 0 0 0 0 0 0 0 0
0 0 0 0 0 0 0 0 0 0 0 0 0 0 0 0 0 0 0 0 0 0 0 0 0 0 0 0 0 0 0 0 0 0 0 0 0 0 0 0 0 0 0 0 0 0 0 0 0
0 0 0 0 0 0 0 0 0 0 0 0 0 0 0 0 0 0 0 0 0 0 0 0 0 0 0 0 0 0 0 0 0 0 0 0 0 0 0 0 0 0 0 0 0 0 0 0 0
0 0 0 0 0 0 0 0 0 0 0 0 0 0 0 0 0 0 0 0 0 0 0 0 0 0 0 0 0 0 0 0 0 0 0 0 0 0 0 0 0 0 0 0 0 0 0 0 0
0 0 0 0 0 0 0 0 0 0 0 0 0 0 0 0 0 0 0 0 0 0 0 0 0 0 0 0 0 0 0 0 0 0 0 0 0 0 0 0 0 0 0 0 0 0 0 0 0
0 0 0 0 0 0 0 0 0 0 0 0 0 0 0 0 0 0 0 0 0 0 0 0 0 0 0 0 0 0 0 0 0 0 0 0 0 0 0 0 0 0 0 0 0 0 0 0 0
0 0 0 0 0 0 0 0 0 0 0 0 0 0 0 0 0 0 0 0 0 0 0 0 0 0 0 0 0 0 0 0 0 0 0 0 0 0 0 0 0 0 0 0 0 0 0 0 0
0 0 0 0 0 0 0 0 0 0 0 0 0 0 0 0 0 0 0 0 0 0 0 0 0 0 0 0 0 0 0 0 0 0 0 0 0 0 0 0 0 0 0 0 0 0 0 0 0
0 0 0 0 0 0 0 0 0 0 0 0 0 0 0 0 0 0 0 0 0 0 0 0 0 0 0 0 0 0 0 0 0 0 0 0 0 0 0 0 0 0 0 0 0 0 0 0 0
0 0 0 0 0 0 0 -0 0 0 0 0 0 0 0 0 0 0 0 0 0 0 0 0 0 0 0 0 0 0 0 0 0 0 0 0 0 0 0 0 0 0 0 0 0 0 0 0 0
0 0 0 0 0 0 0 0 0 0 0 0 0 0 0 0 0 0 0 0 0 0 0 0 0 0 0 0 0 0 0 0 0 0 0 0 0 0 0 0 0 0 0 0 0 0 0 0 0
0 0 0 0 0 0 0 0 -0 0 0 0 0 0 0 0 0 0 0 0 0 0 0 0 0 0 0 0 0 0 0 0 0 0 0 0 0 0 0 0 0 0 0 0 0 0 0 0 0
0 0 0 0 0 0 0 0 0 0 0 0 0 0 0 0 0 0 0 0 0 0 0 0 0 0 0 0 0 0 0 0 0 0 0 0 0 0 0 0 0 0 0 0 0 0 0 0 0
0 0 0 0 0 0 0 0 0 0 0 0 0 0 0 0 0 0 0 0 0 0 0 0 0 0 0 0 0 0 0 0 0 0 0 0 0 0 0 0 0 0 0 0 0 0 0 0 0
0 0 0 0 0 0 0 0 0 0 0 0 0 0 0 0 0 0 0 0 0 0 0 0 0 0 0 0 0 0 0 0 0 0 0 0 0 0 0 0 0 0 0 0 0 0 0 0 0
0 0 0 0 0 0 0 0 0 0 0 0 0 0 0 0 0 0 0 0 0 0 0 0 0 0 0 0 0 0 0 0 0 0 0 0 0 0 0 0 0 0 0 0 0 0 0 0 0
0 0 0 0 0 0 0 0 0 0 0 0 0 0 0 0 0 0 0 0 0 0 0 0 0 0 0 0 0 0 0 0 0 0 0 0 0 0 0 0 0 0 0 0 0 0 0 0 0
0 0 0 0 0 0 0 0 0 0 0 0 0 0 0 0 0 0 0 0 0 0 0 0 0 0 0 0 0 0 0 0 0 0 0 0 0 0 0 0 0 0 0 0 0 0 0 0 0
Wind_Speed_500mb
2 4 5 6 9 10 4 5 8 8 8 11 35 46 25 21 8 11 15 10 13 15 25 26 25 25 25 22 19 17 17 16 15 17 15 18 19 20 24 28 28 24 23 20 21 21 20 19 20
10 7 6 4 9 8 6 8 16 9 16 30 44 40 38 13 32 25 12 21 17 19 19 26 23 22 21 19 17 15 15 14 14 14 12 15 16 19 23 27 30 28 22 19 18 18 17 17 18
12 7 6 8 6 7 7 8 15 16 11 6 13 23 11 9 17 12 14 30 21 16 19 25 23 22 16 16 14 13 12 10 11 11 10 14 15 18 22 26 29 32 26 21 19 18 16 15 14
7 4 3 9 8 15 12 12 35 18 9 14 29 20 19 13 6 19 23 25 24 18 14 18 22 23 19 14 12 12 8 8 9 9 11 13 11 16 21 25 28 30 30 25 22 20 18 16 13
12 3 7 7 6 10 7 16 22 10 13 14 25 9 15 22 25 25 22 14 30 26 24 19 19 26 24 20 13 13 9 6 7 8 12 12 10 15 19 24 27 27 27 26 23 22 21 18 15
7 4 8 4 4 8 9 9 5 13 20 27 27 16 11 17 22 20 26 22 31 27 22 22 25 25 23 19 16 16 15 5 2 7 11 9 10 13 17 22 27 27 23 22 23 23 21 19 17
6 7 6 4 7 7 10 13 5 13 19 12 13 10 17 23 24 22 26 26 31 34 30 22 28 25 21 20 20 18 16 9 5 5 4 4 3 6 12 20 27 29 20 19 21 23 23 20 17
5 8 6 4 9 4 17 19 10 18 5 13 16 13 13 31 27 22 19 21 21 32 31 27 31 34 32 27 25 23 19 17 11 5 5 3 1 5 10 16 24 32 21 17 23 23 23 20 18
5 8 3 8 5 9 17 7 7 15 17 11 11 20 27 30 27 19 18 22 24 26 27 28 29 31 37 30 26 26 22 18 15 11 9 6 4 1 7 15 25 27 26 26 29 29 24 24 21
8 7 2 2 5 6 15 9 16 10 18 13 25 25 26 29 29 24 23 22 22 26 28 30 30 27 27 38 27 28 30 25 20 17 11 12 12 6 10 12 13 14 18 21 26 27 28 29 30
4 6 3 7 10 13 7 10 8 8 5 11 24 27 25 29 35 34 30 26 23 24 24 26 27 26 24 31 38 28 26 28 31 24 22 19 15 17 11 3 2 2 4 12 17 18 27 28 28
4 4 5 0 3 5 4 8 4 8 12 20 27 24 24 24 27 30 30 27 25 26 25 24 25 28 30 29 27 37 36 32 26 23 22 25 20 24 12 8 3 3 7 9 14 15 19 24 26
5 3 1 4 2 5 3 6 6 12 23 25 26 25 23 23 25 24 23 21 20 18 17 18 21 23 27 32 34 34 37 36 31 25 25 26 23 21 12 7 6 3 6 8 10 9 13 16 15
2 4 8 12 13 10 9 8 9 17 31 27 27 27 26 25 25 25 23 21 19 18 18 21 21 24 30 38 39 36 32 27 24 27 24 25 23 17 13 9 7 13 8 6 5 13 8 14 13
1 5 10 24 21 9 14 11 19 30 37 31 29 30 30 29 28 26 25 24 24 25 26 27 26 27 32 40 41 38 33 31 25 26 23 24 21 16 12 9 12 12 9 10 8 3 4 8 6
2 3 3 7 25 9 13 17 11 39 46 37 36 33 32 31 30 29 29 28 27 27 27 28 29 31 38 39 44 43 40 35 30 23 21 23 19 14 13 15 12 10 11 8 6 5 5 4 7
5 7 11 12 23 10 9 13 1 38 38 38 40 41 38 37 37 35 33 29 27 26 25 26 28 33 39 45 47 47 42 37 33 26 22 23 23 21 18 14 14 11 7 6 6 5 4 5 9
11 9 10 10 12 8 11 20 11 39 41 47 47 50 47 45 42 37 32 30 29 27 25 21 33 40 44 45 46 44 42 39 35 30 29 28 23 21 18 18 15 11 7 7 4 5 7 11 17
7 7 9 10 7 10 19 18 22 49 48 48 53 62 60 54 47 38 33 29 27 26 25 30 37 44 46 48 49 50 46 43 37 36 31 26 22 23 20 19 18 15 11 10 9 9 11 13 17
15 17 21 11 9 12 14 25 17 25 44 63 75 76 71 60 54 45 37 34 30 30 35 41 46 48 54 51 48 50 47 44 42 38 33 34 29 26 22 19 16 13 11 11 11 13 16 17 18
14 15 11 17 2 7 8 17 18 17 52 57 73 77 79 77 65 51 45 42 41 42 46 51 57 56 58 57 55 50 51 49 44 45 44 39 32 26 19 16 12 10 9 10 14 17 19 24 24
19 13 12 11 3 12 8 18 14 14 20 22 59 76 81 77 63 52 49 52 52 52 54 57 53 52 52 51 50 51 51 53 55 50 44 39 29 24 19 13 10 9 12 14 18 23 27 25 27
12 4 7 7 6 3 4 10 10 18 22 22 44 65 81 81 70 59 58 61 59 59 61 58 57 56 54 53 54 54 59 61 57 50 43 36 29 21 16 12 11 11 14 19 23 25 28 30 29
15 11 13 9 5 11 19 19 13 17 34 20 27 59 72 76 67 57 60 66 65 65 65 63 59 58 58 59 59 61 63 61 57 49 39 32 26 20 16 12 9 11 15 17 21 24 25 27 27
10 13 3 5 2 17 10 18 43 14 13 21 30 63 76 78 73 69 75 79 79 77 72 68 66 67 67 65 64 60 58 53 46 40 32 28 23 20 14 9 7 8 12 16 20 23 25 24 24
16 18 12 15 10 9 4 16 13 17 19 36 44 67 87 86 83 79 80 82 84 81 78 76 75 73 71 67 62 62 57 50 43 35 30 25 22 17 12 6 3 4 9 14 19 21 22 21 21
10 18 10 3 4 3 11 16 15 8 16 10 29 58 77 88 92 84 83 82 83 83 83 80 78 74 70 67 67 65 57 50 44 36 28 23 21 16 12 10 5 4 8 14 17 18 18 18 21
13 11 5 2 5 12 10 15 23 11 24 15 17 43 58 75 85 84 83 82 84 84 82 78 74 72 71 68 65 61 55 50 42 34 28 26 22 20 18 13 8 3 8 13 16 17 17 19 22
9 10 8 9 10 10 7 19 10 18 25 24 27 56 70 81 89 87 86 87 87 86 84 81 78 75 72 68 65 60 56 50 43 36 32 29 27 24 20 15 9 1 7 14 14 15 17 20 25
3 16 12 12 15 8 5 41 10 6 8 29 38 55 68 81 87 88 90 95 95 94 92 88 84 79 74 71 67 62 57 52 48 43 37 33 30 27 23 17 10 2 8 13 14 16 18 23 29
Wind_Direction_500mb
106 154 134 41 54 66 84 7 109 78 49 62 87 89 96 67 71 143 140 204 176 170 169 165 153 151 148 144 137 125 116 109 100 103 81 57 55 54 44 36 35 41 52 65 67 66 69 72 77
108 125 74 43 81 71 285 110 88 101 128 114 103 94 68 67 92 120 162 144 169 164 173 170 157 149 149 148 145 135 127 113 111 105 81 62 59 52 41 38 38 38 44 59 63 60 61 68 73
98 57 53 93 92 140 145 143 134 119 139 162 116 83 66 6 82 104 95 142 149 171 164 172 165 152 142 157 154 144 133 118 114 105 83 67 65 49 40 38 38 40 46 59 59 54 50 52 62
64 43 61 78 122 353 116 164 126 131 108 82 102 74 82 21 99 116 113 130 162 157 130 163 164 152 161 164 158 139 113 126 119 104 95 100 69 45 37 33 35 37 43 48 47 44 40 43 53
47 51 47 111 101 126 80 112 140 148 139 89 117 108 90 89 102 116 123 135 146 141 160 174 179 172 172 172 160 142 115 85 105 103 112 106 69 52 40 34 31 32 36 41 42 42 40 42 46
32 43 52 3 117 113 93 113 89 116 128 104 107 104 112 138 143 125 144 134 152 149 169 193 194 190 183 177 169 164 145 222 108 115 127 106 71 42 31 30 24 18 20 30 38 43 45 47 52
85 76 197 96 150 132 154 148 57 151 121 93 132 87 137 171 145 166 160 165 166 176 169 174 190 198 197 196 186 180 160 209 208 159 144 116 75 49 33 37 28 17 17 31 35 38 42 44 46
54 92 330 308 182 144 163 132 107 96 103 107 123 147 167 161 160 179 175 183 183 187 195 184 182 199 208 204 193 189 186 201 223 214 188 189 111 107 68 41 35 21 19 49 42 35 33 35 37
55 60 355 316 51 161 157 107 113 105 132 90 97 147 149 156 169 181 185 183 188 187 191 194 192 190 204 202 201 195 206 216 228 233 238 245 224 47 44 61 38 39 36 35 40 36 37 38 34
71 93 277 23 9 164 147 120 155 139 140 92 107 127 147 161 171 191 197 203 197 195 198 201 210 219 212 204 191 193 210 212 212 217 229 223 190 183 161 91 55 37 18 23 15 24 36 41 40
41 154 317 26 56 74 129 108 144 143 109 188 183 162 165 172 181 195 201 211 219 217 209 211 218 222 215 211 203 196 206 217 221 219 208 201 210 194 161 166 276 87 20 346 354 18 33 36 34
64 203 97 357 24 85 93 120 116 208 165 159 168 169 176 182 193 204 210 219 223 221 220 220 223 225 220 215 196 200 204 207 206 205 203 190 190 184 192 211 206 297 299 342 349 6 23 31 20
137 273 96 207 228 197 203 185 190 186 179 177 179 186 192 190 187 192 200 203 211 219 219 216 213 207 205 201 193 192 202 209 208 192 182 184 191 189 195 180 217 252 319 334 341 359 357 7 3
187 318 276 235 218 215 201 242 206 207 193 193 195 197 198 197 196 195 207 213 222 229 232 235 227 216 205 194 189 187 192 203 200 185 183 187 193 204 208 196 202 273 262 294 345 334 323 348 335
297 314 299 237 208 213 200 283 229 207 194 198 203 205 206 204 208 216 221 227 235 240 241 238 227 215 207 195 183 186 185 189 185 185 189 194 195 195 197 200 223 210 225 270 275 277 253 283 254
306 110 297 283 170 189 146 267 273 202 192 198 202 206 208 209 216 223 233 241 242 240 237 233 217 204 192 185 182 185 187 184 182 188 190 179 180 188 194 202 206 193 199 195 226 291 334 314 294
327 243 221 303 172 132 171 261 120 180 196 200 204 210 213 215 222 228 234 241 245 247 245 228 201 190 181 182 182 186 186 185 180 181 184 175 172 179 184 177 170 159 174 205 233 305 348 23 25
213 228 255 231 231 159 190 253 215 201 207 215 211 207 218 224 228 230 235 236 234 230 225 208 175 168 172 176 179 181 185 184 180 182 185 172 169 166 171 166 164 158 156 167 148 79 40 30 41
209 227 250 260 230 154 225 242 225 215 218 222 218 216 215 222 224 228 235 226 217 210 200 170 166 168 174 177 180 179 178 175 179 179 173 170 166 148 138 130 127 125 127 104 82 50 42 41 48
240 253 266 291 204 172 258 253 245 208 224 221 220 220 213 211 214 220 224 212 205 201 178 169 168 169 170 175 180 180 179 174 177 171 163 151 144 138 140 135 127 109 85 77 54 29 16 18 22
214 209 236 231 243 264 305 270 254 240 229 229 230 228 217 214 213 212 211 200 190 185 179 173 171 174 175 177 178 177 176 170 166 160 154 146 144 136 131 125 114 99 75 53 43 35 26 31 27
239 210 213 238 229 251 156 285 241 247 232 220 224 220 214 208 212 213 204 192 188 183 183 179 179 180 180 179 182 186 181 173 160 157 151 144 142 142 139 131 110 84 60 50 38 33 28 24 28
233 83 198 220 213 312 225 296 249 208 240 242 228 210 211 207 207 206 202 194 190 190 187 187 185 184 183 182 186 185 175 166 159 155 153 150 146 144 138 119 93 72 51 38 32 24 17 12 9
148 71 39 41 59 262 212 213 210 216 231 245 214 205 199 198 202 206 199 193 192 192 191 189 188 188 186 185 181 178 176 169 163 158 157 152 152 145 129 110 83 55 41 28 18 15 11 13 12
133 121 279 322 295 246 216 224 250 295 226 217 199 198 197 199 200 199 196 193 193 195 194 193 194 188 182 177 176 179 177 172 167 162 164 158 154 150 146 127 81 44 28 24 20 14 9 6 4
195 166 163 214 215 273 346 239 251 231 242 254 237 213 198 198 199 200 201 197 195 196 195 193 189 185 180 181 181 179 179 175 172 170 163 162 161 156 146 142 133 45 34 23 11 2 359 2 7
201 211 167 347 89 8 220 278 288 253 256 261 202 186 186 192 197 201 201 199 195 193 191 187 185 186 185 184 182 181 181 182 181 171 167 174 172 171 171 186 172 84 35 14 7 5 6 5 4
151 163 106 101 201 251 271 260 236 212 244 224 198 185 187 191 198 200 200 197 194 192 189 188 189 190 186 185 186 186 186 188 186 180 179 183 183 187 190 181 166 83 19 15 12 6 5 357 354
164 192 191 142 166 192 282 262 220 221 219 207 198 194 191 193 201 201 200 197 194 193 193 191 191 191 189 187 188 189 191 193 189 188 187 190 194 193 188 184 185 139 11 5 4 355 350 347 346
269 190 165 174 215 234 174 266 180 138 227 200 203 198 199 202 205 204 202 198 196 196 195 194 193 193 194 192 192 193 196 196 195 194 194 199 203 199 197 195 194 233 347 344 340 337 339 339 339
Wind_Speed_850mb
2 4 5 6 9 10 4 5 8 8 8 11 35 46 25 21 8 11 15 10 13 15 25 26 25 25 25 22 19 17 17 16 15 17 15 18 19 20 24 28 28 24 23 20 21 21 20 19 20
10 7 6 4 9 8 6 8 16 9 16 30 44 40 38 13 32 25 12 21 17 19 19 26 23 22 21 19 17 15 15 14 14 14 12 15 16 19 23 27 30 28 22 19 18 18 17 17 18
12 7 6 8 6 7 7 8 15 16 11 6 13 23 11 9 17 12 14 30 21 16 19 25 23 22 16 16 14 13 12 10 11 11 10 14 15 18 22 26 29 32 26 21 19 18 16 15 14
7 4 3 9 8 15 12 12 35 18 9 14 29 20 19 13 6 19 23 25 24 18 14 18 22 23 19 14 12 12 8 8 9 9 11 13 11 16 21 25 28 30 30 25 22 20 18 16 13
12 3 7 7 6 10 7 16 22 10 13 14 25 9 15 22 25 25 22 14 30 26 24 19 19 26 24 20 13 13 9 6 7 8 12 12 10 15 19 24 27 27 27 26 23 22 21 18 15
7 4 8 4 4 8 9 9 5 13 20 27 27 16 11 17 22 20 26 22 31 27 22 22 25 25 23 19 16 16 15 5 2 7 11 9 10 13 17 22 27 27 23 22 23 23 21 19 17
6 7 6 4 7 7 10 13 5 13 19 12 13 10 17 23 24 22 26 26 31 34 30 22 28 25 21 20 20 18 16 9 5 5 4 4 3 6 12 20 27 29 20 19 21 23 23 20 17
5 8 6 4 9 4 17 19 10 18 5 13 16 13 13 31 27 22 19 21 21 32 31 27 31 34 32 27 25 23 19 17 11 5 5 3 1 5 10 16 24 32 21 17 23 23 23 20 18
5 8 3 8 5 9 17 7 7 15 17 11 11 20 27 30 27 19 18 22 24 26 27 28 29 31 37 30 26 26 22 18 15 11 9 6 4 1 7 15 25 27 26 26 29 29 24 24 21
8 7 2 2 5 6 15 9 16 10 18 13 25 25 26 29 29 24 23 22 22 26 28 30 30 27 27 38 27 28 30 25 20 17 11 12 12 6 10 12 13 14 18 21 26 27 28 29 30
4 6 3 7 10 13 7 10 8 8 5 11 24 27 25 29 35 34 30 26 23 24 24 26 27 26 24 31 38 28 26 28 31 24 22 19 15 17 11 3 2 2 4 12 17 18 27 28 28
4 4 5 0 3 5 4 8 4 8 12 20 27 24 24 24 27 30 30 27 25 26 25 24 25 28 30 29 27 37 36 32 26 23 22 25 20 24 12 8 3 3 7 9 14 15 19 24 26
5 3 1 4 2 5 3 6 6 12 23 25 26 25 23 23 25 24 23 21 20 18 17 18 21 23 27 32 34 34 37 36 31 25 25 26 23 21 12 7 6 3 6 8 10 9 13 16 15
2 4 8 12 13 10 9 8 9 17 31 27 27 27 26 25 25 25 23 21 19 18 18 21 21 24 30 38 39 36 32 27 24 27 24 25 23 17 13 9 7 13 8 6 5 13 8 14 13
1 5 10 24 21 9 14 11 19 30 37 31 29 30 30 29 28 26 25 24 24 25 26 27 26 27 32 40 41 38 33 31 25 26 23 24 21 16 12 9 12 12 9 10 8 3 4 8 6
2 3 3 7 25 9 13 17 11 39 46 37 36 33 32 31 30 29 29 28 27 27 27 28 29 31 38 39 44 43 40 35 30 23 21 23 19 14 13 15 12 10 11 8 6 5 5 4 7
5 7 11 12 23 10 9 13 1 38 38 38 40 41 38 37 37 35 33 29 27 26 25 26 28 33 39 45 47 47 42 37 33 26 22 23 23 21 18 14 14 11 7 6 6 5 4 5 9
11 9 10 10 12 8 11 20 11 39 41 47 47 50 47 45 42 37 32 30 29 27 25 21 33 40 44 45 46 44 42 39 35 30 29 28 23 21 18 18 15 11 7 7 4 5 7 11 17
7 7 9 10 7 10 19 18 22 49 48 48 53 62 60 54 47 38 33 29 27 26 25 30 37 44 46 48 49 50 46 43 37 36 31 26 22 23 20 19 18 15 11 10 9 9 11 13 17
15 17 21 11 9 12 14 25 17 25 44 63 75 76 71 60 54 45 37 34 30 30 35 41 46 48 54 51 48 50 47 44 42 38 33 34 29 26 22 19 16 13 11 11 11 13 16 17 18
14 15 11 17 2 7 8 17 18 17 52 57 73 77 79 77 65 51 45 42 41 42 46 51 57 56 58 57 55 50 51 49 44 45 44 39 32 26 19 16 12 10 9 10 14 17 19 24 24
19 13 12 11 3 12 8 18 14 14 20 22 59 76 81 77 63 52 49 52 52 52 54 57 53 52 52 51 50 51 51 53 55 50 44 39 29 24 19 13 10 9 12 14 18 23 27 25 27
12 4 7 7 6 3 4 10 10 18 22 22 44 65 81 81 70 59 58 61 59 59 61 58 57 56 54 53 54 54 59 61 57 50 43 36 29 21 16 12 11 11 14 19 23 25 28 30 29
15 11 13 9 5 11 19 19 13 17 34 20 27 59 72 76 67 57 60 66 65 65 65 63 59 58 58 59 59 61 63 61 57 49 39 32 26 20 16 12 9 11 15 17 21 24 25 27 27
10 13 3 5 2 17 10 18 43 14 13 21 30 63 76 78 73 69 75 79 79 77 72 68 66 67 67 65 64 60 58 53 46 40 32 28 23 20 14 9 7 8 12 16 20 23 25 24 24
16 18 12 15 10 9 4 16 13 17 19 36 44 67 87 86 83 79 80 82 84 81 78 76 75 73 71 67 62 62 57 50 43 35 30 25 22 17 12 6 3 4 9 14 19 21 22 21 21
10 18 10 3 4 3 11 16 15 8 16 10 29 58 77 88 92 84 83 82 83 83 83 80 78 74 70 67 67 65 57 50 44 36 28 23 21 16 12 10 5 4 8 14 17 18 18 18 21
13 11 5 2 5 12 10 15 23 11 24 15 17 43 58 75 85 84 83 82 84 84 82 78 74 72 71 68 65 61 55 50 42 34 28 26 22 20 18 13 8 3 8 13 16 17 17 19 22
9 10 8 9 10 10 7 19 10 18 25 24 27 56 70 81 89 87 86 87 87 86 84 81 78 75 72 68 65 60 56 50 43 36 32 29 27 24 20 15 9 1 7 14 14 15 17 20 25
3 16 12 12 15 8 5 41 10 6 8 29 38 55 68 81 87 88 90 95 95 94 92 88 84 79 74 71 67 62 57 52 48 43 37 33 30 27 23 17 10 2 8 13 14 16 18 23 29
Wind_Direction_850mb
106 154 134 41 54 66 84 7 109 78 49 62 87 89 96 67 71 143 140 204 176 170 169 165 153 151 148 144 137 125 116 109 100 103 81 57 55 54 44 36 35 41 52 65 67 66 69 72 77
108 125 74 43 81 71 285 110 88 101 128 114 103 94 68 67 92 120 162 144 169 164 173 170 157 149 149 148 145 135 127 113 111 105 81 62 59 52 41 38 38 38 44 59 63 60 61 68 73
98 57 53 93 92 140 145 143 134 119 139 162 116 83 66 6 82 104 95 142 149 171 164 172 165 152 142 157 154 144 133 118 114 105 83 67 65 49 40 38 38 40 46 59 59 54 50 52 62
64 43 61 78 122 353 116 164 126 131 108 82 102 74 82 21 99 116 113 130 162 157 130 163 164 152 161 164 158 139 113 126 119 104 95 100 69 45 37 33 35 37 43 48 47 44 40 43 53
47 51 47 111 101 126 80 112 140 148 139 89 117 108 90 89 102 116 123 135 146 141 160 174 179 172 172 172 160 142 115 85 105 103 112 106 69 52 40 34 31 32 36 41 42 42 40 42 46
32 43 52 3 117 113 93 113 89 116 128 104 107 104 112 138 143 125 144 134 152 149 169 193 194 190 183 177 169 164 145 222 108 115 127 106 71 42 31 30 24 18 20 30 38 43 45 47 52
85 76 197 96 150 132 154 148 57 151 121 93 132 87 137 171 145 166 160 165 166 176 169 174 190 198 197 196 186 180 160 209 208 159 144 116 75 49 33 37 28 17 17 31 35 38 42 44 46
54 92 330 308 182 144 163 132 107 96 103 107 123 147 167 161 160 179 175 183 183 187 195 184 182 199 208 204 193 189 186 201 223 214 188 189 111 107 68 41 35 21 19 49 42 35 33 35 37
55 60 355 316 51 161 157 107 113 105 132 90 97 147 149 156 169 181 185 183 188 187 191 194 192 190 204 202 201 195 206 216 228 233 238 245 224 47 44 61 38 39 36 35 40 36 37 38 34
71 93 277 23 9 164 147 120 155 139 140 92 107 127 147 161 171 191 197 203 197 195 198 201 210 219 212 204 191 193 210 212 212 217 229 223 190 183 161 91 55 37 18 23 15 24 36 41 40
41 154 317 26 56 74 129 108 144 143 109 188 183 162 165 172 181 195 201 211 219 217 209 211 218 222 215 211 203 196 206 217 221 219 208 201 210 194 161 166 276 87 20 346 354 18 33 36 34
64 203 97 357 24 85 93 120 116 208 165 159 168 169 176 182 193 204 210 219 223 221 220 220 223 225 220 215 196 200 204 207 206 205 203 190 190 184 192 211 206 297 299 342 349 6 23 31 20
137 273 96 207 228 197 203 185 190 186 179 177 179 186 192 190 187 192 200 203 211 219 219 216 213 207 205 201 193 192 202 209 208 192 182 184 191 189 195 180 217 252 319 334 341 359 357 7 3
187 318 276 235 218 215 201 242 206 207 193 193 195 197 198 197 196 195 207 213 222 229 232 235 227 216 205 194 189 187 192 203 200 185 183 187 193 204 208 196 202 273 262 294 345 334 323 348 335
297 314 299 237 208 213 200 283 229 207 194 198 203 205 206 204 208 216 221 227 235 240 241 238 227 215 207 195 183 186 185 189 185 185 189 194 195 195 197 200 223 210 225 270 275 277 253 283 254
306 110 297 283 170 189 146 267 273 202 192 198 202 206 208 209 216 223 233 241 242 240 237 233 217 204 192 185 182 185 187 184 182 188 190 179 180 188 194 202 206 193 199 195 226 291 334 314 294
327 243 221 303 172 132 171 261 120 180 196 200 204 210 213 215 222 228 234 241 245 247 245 228 201 190 181 182 182 186 186 185 180 181 184 175 172 179 184 177 170 159 174 205 233 305 348 23 25
213 228 255 231 231 159 190 253 215 201 207 215 211 207 218 224 228 230 235 236 234 230 225 208 175 168 172 176 179 181 185 184 180 182 185 172 169 166 171 166 164 158 156 167 148 79 40 30 41
209 227 250 260 230 154 225 242 225 215 218 222 218 216 215 222 224 228 235 226 217 210 200 170 166 168 174 177 180 179 178 175 179 179 173 170 166 148 138 130 127 125 127 104 82 50 42 41 48
240 253 266 291 204 172 258 253 245 208 224 221 220 220 213 211 214 220 224 212 205 201 178 169 168 169 170 175 180 180 179 174 177 171 163 151 144 138 140 135 127 109 85 77 54 29 16 18 22
214 209 236 231 243 264 305 270 254 240 229 229 230 228 217 214 213 212 211 200 190 185 179 173 171 174 175 177 178 177 176 170 166 160 154 146 144 136 131 125 114 99 75 53 43 35 26 31 27
239 210 213 238 229 251 156 285 241 247 232 220 224 220 214 208 212 213 204 192 188 183 183 179 179 180 180 179 182 186 181 173 160 157 151 144 142 142 139 131 110 84 60 50 38 33 28 24 28
233 83 198 220 213 312 225 296 249 208 240 242 228 210 211 207 207 206 202 194 190 190 187 187 185 184 183 182 186 185 175 166 159 155 153 150 146 144 138 119 93 72 51 38 32 24 17 12 9
148 71 39 41 59 262 212 213 210 216 231 245 214 205 199 198 202 206 199 193 192 192 191 189 188 188 186 185 181 178 176 169 163 158 157 152 152 145 129 110 83 55 41 28 18 15 11 13 12
133 121 279 322 295 246 216 224 250 295 226 217 199 198 197 199 200 199 196 193 193 195 194 193 194 188 182 177 176 179 177 172 167 162 164 158 154 150 146 127 81 44 28 24 20 14 9 6 4
195 166 163 214 215 273 346 239 251 231 242 254 237 213 198 198 199 200 201 197 195 196 195 193 189 185 180 181 181 179 179 175 172 170 163 162 161 156 146 142 133 45 34 23 11 2 359 2 7
201 211 167 347 89 8 220 278 288 253 256 261 202 186 186 192 197 201 201 199 195 193 191 187 185 186 185 184 182 181 181 182 181 171 167 174 172 171 171 186 172 84 35 14 7 5 6 5 4
151 163 106 101 201 251 271 260 236 212 244 224 198 185 187 191 198 200 200 197 194 192 189 188 189 190 186 185 186 186 186 188 186 180 179 183 183 187 190 181 166 83 19 15 12 6 5 357 354
164 192 191 142 166 192 282 262 220 221 219 207 198 194 191 193 201 201 200 197 194 193 193 191 191 191 189 187 188 189 191 193 189 188 187 190 194 193 188 184 185 139 11 5 4 355 350 347 346
269 190 165 174 215 234 174 266 180 138 227 200 203 198 199 202 205 204 202 198 196 196 195 194 193 193 194 192 192 193 196 196 195 194 194 199 203 199 197 195 194 233 347 344 340 337 339 339 339